Weather History for KGAO - June, 2013

Change the Weather History Date:

Monday, June 17, 2013

  Actual Average (KAXO) Record (KAXO)
Temperature  
Mean Temperature 82 °F -  
Max Temperature 91 °F 81 °F 91 °F (2008)
Min Temperature 75 °F 78 °F 75 °F (2002)
Cooling Degree Days 18    
Growing Degree Days 32 (Base 50)    
Moisture  
Dew Point 75 °F    
Average Humidity 75    
Maximum Humidity 94    
Minimum Humidity 58    
Precipitation  
Precipitation 0.17 in - - ()
Sea Level Pressure  
Sea Level Pressure 30.00 in    
Wind  
Wind Speed 5 mph (SSW)    
Max Wind Speed 16 mph    
Max Gust Speed 22 mph    
Visibility 10 miles    
Events Rain , Thunderstorm    
Averages and records for this station are not official NWS values.
T = Trace of Precipitation, MM = Missing Value Source: NWS Daily Summary

Daily Weather History Graph

Daily Weather History Graph

Search for Another Location

Airport or City:

Trip Planner

Search our weather history database for the weather conditions in past years. The results will help you decide how hot, cold, wet, or windy it might be!

Date:

Astronomy

Jun. 17, 2013 Rise Set
Actual Time 6:01 AM CDT 8:02 PM CDT
Civil Twilight 5:33 AM CDT 8:30 PM CDT
Nautical Twilight 5:00 AM CDT 9:03 PM CDT
Astronomical Twilight 4:25 AM CDT 9:38 PM CDT
Moon 2:03 PM CDT (6/17) 1:12 AM CDT (6/17)
Length of Visible Light 14h 56m
Length of Day
14h 01m
First Quarter, 60% of the Moon is Illuminated
Jun 17
First Quarter
Jun 23
Full
Jun 29
Last Quarter
Jul 8
New
Jul 15
First Quarter

Hourly Weather History & Observations

Time (CDT) Temp. Heat Index Dew Point Humidity Pressure Visibility Wind Dir Wind Speed Gust Speed Precip Events Conditions
12:15 AM 82.4 °F 89.0 °F 74.7 °F 77% 30.02 in 10.0 mi South 5.8 mph - N/A   Clear
12:35 AM 82.0 °F 88.4 °F 74.7 °F 78% 30.01 in 10.0 mi South 5.8 mph - N/A   Clear
12:55 AM 81.7 °F 87.8 °F 74.7 °F 79% 30.01 in 10.0 mi SSW 4.6 mph - N/A   Clear
1:15 AM 81.5 °F 87.8 °F 75.2 °F 81% 30.01 in 10.0 mi SSW 4.6 mph - N/A   Clear
1:35 AM 81.7 °F 88.5 °F 75.6 °F 82% 30.00 in 10.0 mi South 3.5 mph - N/A   Clear
1:55 AM 82.2 °F 89.1 °F 75.0 °F 79% 30.00 in 10.0 mi South 4.6 mph - N/A   Clear
2:15 AM 81.5 °F 87.4 °F 74.5 °F 79% 30.00 in 10.0 mi South 4.6 mph - N/A   Clear
2:35 AM 81.7 °F 87.6 °F 74.3 °F 78% 29.99 in 10.0 mi SSW 3.5 mph - N/A   Clear
2:55 AM 81.5 °F 87.4 °F 74.5 °F 79% 29.99 in 10.0 mi Calm Calm - N/A   Clear
3:15 AM 79.7 °F - 74.7 °F 84% 30.00 in 10.0 mi Calm Calm - N/A   Clear
3:35 AM 78.8 °F - 74.8 °F 88% 30.00 in 10.0 mi Calm Calm - N/A   Clear
3:55 AM 78.8 °F - 75.2 °F 89% 30.00 in 10.0 mi Calm Calm - N/A   Clear
4:15 AM 77.4 °F - 74.5 °F 91% 29.99 in 10.0 mi Calm Calm - N/A   Clear
4:35 AM 77.0 °F - 74.3 °F 91% 30.00 in 10.0 mi Calm Calm - N/A   Clear
4:55 AM 76.1 °F - 73.8 °F 92% 30.00 in 10.0 mi Calm Calm - N/A   Clear
5:15 AM 75.4 °F - 73.4 °F 94% 29.99 in 10.0 mi Calm Calm - N/A   Clear
5:35 AM 75.6 °F - 73.4 °F 93% 29.99 in 10.0 mi Calm Calm - N/A   Clear
5:55 AM 75.4 °F - 73.0 °F 92% 30.00 in 10.0 mi Calm Calm - N/A   Clear
6:15 AM 75.0 °F - 72.7 °F 92% 30.00 in 10.0 mi Calm Calm - N/A   Clear
6:35 AM 75.2 °F - 73.0 °F 93% 30.00 in 10.0 mi Calm Calm - N/A   Clear
6:55 AM 76.8 °F - 74.5 °F 92% 30.00 in 10.0 mi Calm Calm - N/A   Clear
7:15 AM 81.0 °F 87.7 °F 76.6 °F 87% 30.01 in 10.0 mi Calm Calm - N/A   Clear
7:35 AM 85.3 °F 96.7 °F 77.5 °F 78% 30.01 in 10.0 mi Calm Calm - N/A   Scattered Clouds
7:55 AM 84.4 °F 94.6 °F 77.2 °F 79% 30.00 in 10.0 mi Calm Calm - N/A   Scattered Clouds
8:15 AM 84.2 °F 94.9 °F 77.9 °F 81% 30.01 in 10.0 mi WSW 3.5 mph - N/A Thunderstorm Mostly Cloudy
8:35 AM 83.1 °F 91.9 °F 76.6 °F 81% 30.02 in 10.0 mi ESE 13.8 mph 21.9 mph N/A   Overcast
8:55 AM 78.4 °F - 76.1 °F 92% 30.02 in 2.5 mi SSE 16.1 mph 19.6 mph 0.14 in Rain Heavy Rain
9:15 AM 79.9 °F - 75.7 °F 87% 30.03 in 10.0 mi Calm Calm - 0.02 in Rain Light Rain
9:35 AM 79.7 °F - 75.4 °F 87% 30.03 in 10.0 mi Calm Calm - 0.03 in   Overcast
9:55 AM 79.7 °F - 75.7 °F 88% 30.03 in 10.0 mi Calm Calm - 0.03 in   Overcast
10:15 AM 80.6 °F 86.8 °F 76.3 °F 87% 30.04 in 10.0 mi Calm Calm - N/A   Overcast
10:35 AM 83.3 °F 93.1 °F 77.5 °F 83% 30.04 in 10.0 mi North 3.5 mph - N/A   Overcast
10:55 AM 83.3 °F 93.5 °F 77.9 °F 84% 30.04 in 10.0 mi Calm Calm - N/A   Mostly Cloudy
11:15 AM 88.5 °F 101.6 °F 77.5 °F 70% 30.04 in 10.0 mi SSW 11.5 mph - N/A   Mostly Cloudy
11:35 AM 86.2 °F 95.5 °F 75.4 °F 70% 30.04 in 10.0 mi South 11.5 mph - N/A   Scattered Clouds
11:55 AM 87.8 °F 99.1 °F 76.3 °F 69% 30.04 in 10.0 mi South 10.4 mph - N/A   Scattered Clouds
12:15 PM 89.2 °F 100.7 °F 76.3 °F 65% 30.04 in 10.0 mi SSW 10.4 mph - N/A   Scattered Clouds
12:35 PM 89.6 °F 100.4 °F 75.6 °F 63% 30.03 in 10.0 mi SSW 10.4 mph - N/A   Clear
12:55 PM 90.3 °F 101.6 °F 75.9 °F 62% 30.03 in 10.0 mi SSW 12.7 mph - N/A   Scattered Clouds
1:15 PM 90.5 °F 101.5 °F 75.6 °F 61% 30.03 in 10.0 mi SW 6.9 mph 17.3 mph N/A   Scattered Clouds
1:35 PM 90.5 °F 100.9 °F 74.7 °F 60% 30.02 in 10.0 mi South 12.7 mph 16.1 mph N/A   Scattered Clouds
1:55 PM 90.5 °F 99.7 °F 73.9 °F 58% 30.02 in 10.0 mi SSW 12.7 mph 17.3 mph N/A   Scattered Clouds
2:15 PM 90.5 °F 101.5 °F 75.4 °F 61% 30.00 in 10.0 mi South 10.4 mph - N/A   Clear
2:35 PM 90.9 °F 102.4 °F 75.6 °F 61% 30.00 in 10.0 mi SSW 12.7 mph 17.3 mph N/A   Clear
2:55 PM 90.5 °F 100.9 °F 74.7 °F 60% 29.99 in 10.0 mi SSW 13.8 mph - N/A   Clear
3:15 PM 90.5 °F 101.5 °F 75.2 °F 61% 29.98 in 10.0 mi South 12.7 mph - N/A   Scattered Clouds
3:35 PM 90.3 °F 101.6 °F 75.6 °F 62% 29.97 in 10.0 mi SSW 11.5 mph - N/A   Scattered Clouds
3:55 PM 90.9 °F 102.4 °F 75.7 °F 61% 29.97 in 10.0 mi SSW 12.7 mph 19.6 mph N/A   Scattered Clouds
4:15 PM 90.9 °F 101.8 °F 75.2 °F 60% 29.96 in 10.0 mi South 13.8 mph 18.4 mph N/A   Clear
4:35 PM 90.1 °F 100.6 °F 75.0 °F 61% 29.96 in 10.0 mi South 10.4 mph 18.4 mph N/A   Clear
4:55 PM 90.0 °F 100.2 °F 74.7 °F 61% 29.96 in 10.0 mi SSW 11.5 mph 17.3 mph N/A   Clear
5:15 PM 90.1 °F 100.0 °F 74.5 °F 60% 29.96 in 10.0 mi SSW 9.2 mph - N/A   Clear
5:35 PM 89.8 °F 99.7 °F 74.5 °F 61% 29.96 in 10.0 mi South 11.5 mph - N/A   Clear
5:55 PM 89.6 °F 99.3 °F 74.3 °F 61% 29.95 in 10.0 mi South 9.2 mph - N/A   Clear
6:15 PM 88.7 °F 97.7 °F 73.9 °F 62% 29.96 in 10.0 mi South 10.4 mph - N/A   Clear
6:35 PM 88.2 °F 96.9 °F 74.3 °F 63% 29.96 in 10.0 mi SSW 10.4 mph - N/A   Clear
6:55 PM 87.4 °F 95.3 °F 73.4 °F 63% 29.96 in 10.0 mi South 10.4 mph - N/A   Clear
7:15 PM 86.4 °F 93.8 °F 73.4 °F 65% 29.96 in 10.0 mi South 8.1 mph - N/A   Clear
7:35 PM 84.7 °F 91.4 °F 73.2 °F 68% 29.96 in 10.0 mi South 5.8 mph - N/A   Clear
7:55 PM 83.7 °F 90.1 °F 73.4 °F 71% 29.96 in 10.0 mi South 5.8 mph - N/A   Clear
8:15 PM 83.5 °F 89.7 °F 73.2 °F 71% 29.97 in 10.0 mi South 4.6 mph - N/A   Clear
8:35 PM 83.3 °F 89.9 °F 73.8 °F 73% 29.97 in 10.0 mi South 4.6 mph - N/A   Clear
8:55 PM 82.6 °F 89.1 °F 74.5 °F 76% 29.97 in 10.0 mi South 4.6 mph - N/A   Clear
9:15 PM 82.4 °F 88.4 °F 73.9 °F 75% 29.97 in 10.0 mi South 4.6 mph - N/A   Clear
9:35 PM 81.7 °F 87.1 °F 73.4 °F 76% 29.98 in 10.0 mi South 4.6 mph - N/A   Clear
9:55 PM 81.3 °F 86.5 °F 73.6 °F 77% 29.99 in 10.0 mi South 3.5 mph - N/A   Scattered Clouds
10:15 PM 81.1 °F 86.4 °F 73.8 °F 78% 29.98 in 10.0 mi South 5.8 mph - N/A   Scattered Clouds
10:35 PM 82.0 °F 87.7 °F 73.2 °F 75% 29.98 in 10.0 mi South 5.8 mph - N/A   Mostly Cloudy
10:55 PM 82.0 °F 87.7 °F 73.4 °F 75% 29.99 in 10.0 mi South 4.6 mph - N/A   Mostly Cloudy
11:15 PM 81.9 °F 87.3 °F 73.4 °F 75% 29.99 in 10.0 mi South 4.6 mph - N/A   Mostly Cloudy
11:35 PM 81.5 °F 86.7 °F 73.4 °F 76% 29.98 in 10.0 mi South 3.5 mph - N/A   Scattered Clouds
11:55 PM 81.3 °F 86.8 °F 73.8 °F 78% 29.98 in 10.0 mi SSW 3.5 mph - N/A   Mostly Cloudy